"read_dt","SO2 (ppb)","flags","PMT voltage (V)","lamp voltage (V)","lamp intensity (Hz)","internal temp (C)","react chamber temp (C)","sample flow (l/min)","pres (mmHg)","SO2 bkg (ppb)","SO2 coefficient"
2015-06-22 00:24:00,1932E-3,5C000004,-0724,0804,12028,016.1,016.7,0.496,726.3,01.19,0.508
2015-06-22 00:25:00,2783E-3,5C000004,-0724,0819,12320,016.3,017.3,0.495,726.4,01.19,0.508
2015-06-22 00:26:00,2594E-3,5C000004,-0724,0820,12260,016.5,018.3,0.494,726.5,01.19,0.508
2015-06-22 00:27:00,2741E-3,5C000004,-0724,0819,12333,016.7,019.4,0.493,726.5,01.19,0.508
2015-06-22 00:28:00,2709E-3,5C000004,-0724,0820,12174,016.9,020.5,0.493,726.4,01.19,0.508
2015-06-22 00:29:00,2765E-3,5C000004,-0724,0820,12318,017.1,021.7,0.493,726.4,01.19,0.508
2015-06-22 00:30:00,2547E-3,5C000004,-0724,0820,12255,017.3,022.8,0.491,726.4,01.19,0.508
2015-06-22 00:31:00,2648E-3,5C000004,-0724,0820,12404,017.5,023.8,0.491,726.3,01.19,0.508
2015-06-22 00:32:00,2487E-3,5C000004,-0724,0821,12288,017.7,024.8,0.490,726.1,01.19,0.508
2015-06-22 00:33:00,2495E-3,5C000004,-0724,0822,12078,017.9,025.8,0.489,726.2,01.19,0.508
2015-06-22 00:34:00,2516E-3,5C000004,-0724,0822,12235,018.2,026.8,0.489,726.1,01.19,0.508
2015-06-22 00:35:00,2509E-3,5C000004,-0724,0822,12445,018.4,027.7,0.489,726.1,01.19,0.508
2015-06-22 00:36:00,2380E-3,5C000004,-0724,0823,12312,018.6,028.6,0.488,725.9,01.19,0.508
2015-06-22 00:37:00,2599E-3,5C000004,-0724,0823,12283,018.9,029.4,0.488,726.1,01.19,0.508
2015-06-22 00:38:00,2436E-3,5C000004,-0724,0823,12275,019.1,030.2,0.487,726.3,01.19,0.508
2015-06-22 00:39:00,2325E-3,5C000004,-0724,0824,12359,019.3,031.0,0.486,726.2,01.19,0.508
2015-06-22 00:40:00,2319E-3,5C000004,-0724,0824,12404,019.6,031.8,0.486,726.0,01.19,0.508
2015-06-22 00:41:00,2230E-3,5C000004,-0724,0824,12342,019.8,032.5,0.486,726.3,01.19,0.508
2015-06-22 00:42:00,2292E-3,5C000004,-0724,0824,12256,020.0,033.3,0.486,726.2,01.19,0.508
2015-06-22 00:43:00,2274E-3,5C000004,-0724,0825,12244,020.2,034.0,0.485,726.3,01.19,0.508
2015-06-22 00:44:00,2203E-3,5C000004,-0724,0825,12334,020.4,034.7,0.484,726.3,01.19,0.508
2015-06-22 00:45:00,2170E-3,5C000004,-0724,0825,12414,020.6,035.3,0.484,726.3,01.19,0.508
2015-06-22 00:46:00,2245E-3,5C000004,-0724,0825,12350,020.9,036.0,0.484,726.3,01.19,0.508
2015-06-22 00:47:00,2022E-3,5C000004,-0724,0826,12259,021.1,036.6,0.483,726.3,01.19,0.508
2015-06-22 00:48:00,2224E-3,5C000004,-0724,0826,12248,021.2,037.2,0.482,726.2,01.19,0.508
2015-06-22 00:49:00,2163E-3,5C000004,-0724,0825,12206,021.4,037.8,0.483,726.1,01.19,0.508
2015-06-22 00:50:00,2016E-3,5C000004,-0724,0826,12307,021.7,038.4,0.482,726.3,01.19,0.508
2015-06-22 00:51:00,1973E-3,5C000004,-0724,0826,12176,021.8,038.9,0.481,726.3,01.19,0.508
2015-06-22 00:52:00,2172E-3,5C000004,-0724,0826,12254,022.0,039.6,0.481,726.1,01.19,0.508
2015-06-22 00:53:00,1971E-3,5C000004,-0724,0827,12352,022.2,040.0,0.481,726.2,01.19,0.508
2015-06-22 00:54:00,2134E-3,5C000004,-0724,0826,12211,022.4,040.6,0.481,726.2,01.19,0.508
2015-06-22 00:55:00,1991E-3,5C000004,-0724,0828,12232,022.6,041.1,0.480,726.0,01.19,0.508
2015-06-22 00:56:00,1990E-3,5C000004,-0724,0826,12103,022.8,041.7,0.480,725.7,01.19,0.508
2015-06-22 00:57:00,2010E-3,5C000004,-0724,0827,12155,023.0,042.1,0.480,726.0,01.19,0.508
2015-06-22 00:58:00,1890E-3,5C000004,-0724,0826,12165,023.1,042.6,0.480,726.0,01.19,0.508
2015-06-22 00:59:00,2053E-3,5C000000,-0724,0827,12212,023.3,043.1,0.479,725.9,01.19,0.508
2015-06-22 01:00:00,2017E-3,5C000000,-0724,0827,12168,023.5,043.5,0.479,726.0,01.19,0.508
2015-06-22 01:01:00,1858E-3,5C000000,-0724,0828,12275,023.6,044.0,0.479,725.8,01.19,0.508
2015-06-22 01:02:00,1896E-3,5C000000,-0724,0826,12107,023.8,044.4,0.478,725.9,01.19,0.508
2015-06-22 01:03:00,1902E-3,5C000000,-0724,0827,12197,024.0,044.9,0.479,726.1,01.19,0.508
2015-06-22 01:04:00,1657E-3,5C000000,-0724,0827,12266,024.1,045.3,0.478,725.9,01.19,0.508
2015-06-22 01:05:00,1695E-3,5C000000,-0724,0827,12121,024.3,045.6,0.477,725.9,01.19,0.508
2015-06-22 01:06:00,1777E-3,5C000000,-0724,0827,12072,024.5,045.6,0.478,725.7,01.19,0.508
2015-06-22 01:07:00,1770E-3,5C000000,-0724,0827,12235,024.6,045.5,0.478,725.6,01.19,0.508
2015-06-22 01:08:00,1858E-3,5C000000,-0724,0827,12322,024.8,045.5,0.477,725.9,01.19,0.508
2015-06-22 01:09:00,1773E-3,5C000000,-0724,0827,12350,024.9,045.5,0.477,725.9,01.19,0.508
2015-06-22 01:10:00,1664E-3,5C000000,-0724,0826,12256,025.1,045.5,0.476,725.8,01.19,0.508
2015-06-22 01:11:00,1739E-3,5C000000,-0724,0826,12245,025.2,045.5,0.476,726.0,01.19,0.508
2015-06-22 01:12:00,1779E-3,5C000000,-0724,0827,12158,025.4,045.5,0.476,725.9,01.19,0.508
2015-06-22 01:13:00,1767E-3,5C000000,-0724,0826,12245,025.5,045.5,0.476,725.9,01.19,0.508
2015-06-22 01:14:00,1766E-3,5C000000,-0724,0827,12389,025.6,045.5,0.476,726.0,01.19,0.508
2015-06-22 01:15:00,1754E-3,5C000000,-0724,0826,12184,025.8,045.5,0.476,725.9,01.19,0.508
2015-06-22 01:16:00,1606E-3,5C000000,-0724,0826,12261,025.9,045.5,0.476,725.9,01.19,0.508
2015-06-22 01:17:00,1872E-3,5C000000,-0724,0826,12089,026.1,045.5,0.476,725.8,01.19,0.508
2015-06-22 01:18:00,1762E-3,5C000000,-0724,0827,12264,026.2,045.5,0.475,725.9,01.19,0.508
2015-06-22 01:19:00,1774E-3,5C000000,-0724,0826,12176,026.3,045.5,0.475,725.9,01.19,0.508
2015-06-22 01:20:00,1752E-3,5C000000,-0724,0826,12300,026.5,045.5,0.475,725.7,01.19,0.508
2015-06-22 01:21:00,1712E-3,5C000000,-0724,0825,12110,026.6,045.5,0.475,725.9,01.19,0.508
2015-06-22 01:22:00,1779E-3,5C000000,-0724,0826,12050,026.7,045.5,0.474,725.9,01.19,0.508
2015-06-22 01:23:00,1554E-3,5C000000,-0724,0826,12286,026.8,045.5,0.474,725.9,01.19,0.508
2015-06-22 01:24:00,1683E-3,5C000000,-0724,0825,12199,027.0,045.5,0.474,725.9,01.19,0.508
2015-06-22 01:25:00,1659E-3,5C000000,-0724,0825,12323,027.1,045.5,0.474,725.9,01.19,0.508
2015-06-22 01:26:00,1713E-3,5C000000,-0724,0826,12224,027.2,045.5,0.474,726.0,01.19,0.508
2015-06-22 01:27:00,1696E-3,5C000000,-0724,0825,12288,027.3,045.5,0.474,725.8,01.19,0.508
2015-06-22 01:28:00,1651E-3,5C000000,-0724,0825,12318,027.4,045.5,0.474,725.9,01.19,0.508
2015-06-22 01:29:00,1539E-3,5C000000,-0724,0825,12229,027.5,045.5,0.473,725.8,01.19,0.508
2015-06-22 01:30:00,1638E-3,5C000000,-0724,0825,12328,027.6,045.5,0.473,725.9,01.19,0.508
2015-06-22 01:31:00,1708E-3,5C000000,-0724,0825,12404,027.7,045.5,0.473,725.8,01.19,0.508
2015-06-22 01:32:00,1602E-3,5C000000,-0724,0826,12365,027.8,045.5,0.473,725.9,01.19,0.508
2015-06-22 01:33:00,1583E-3,5C000000,-0724,0825,12223,027.9,045.5,0.472,725.8,01.19,0.508
2015-06-22 01:34:00,1723E-3,5C000000,-0724,0825,12289,028.0,045.5,0.472,725.9,01.19,0.508
2015-06-22 01:35:00,1727E-3,5C000000,-0724,0825,12223,028.1,045.5,0.472,725.9,01.19,0.508
2015-06-22 01:36:00,1673E-3,5C000000,-0724,0825,12122,028.2,045.5,0.472,725.9,01.19,0.508
2015-06-22 01:37:00,1699E-3,5C000000,-0724,0825,12368,028.3,045.5,0.472,725.8,01.19,0.508
2015-06-22 01:38:00,1670E-3,5C000000,-0724,0824,12152,028.4,045.5,0.472,725.6,01.19,0.508
2015-06-22 01:39:00,1658E-3,5C000000,-0724,0826,12137,028.5,045.5,0.472,725.8,01.19,0.508
2015-06-22 01:40:00,1599E-3,5C000000,-0724,0825,12375,028.6,045.5,0.471,725.7,01.19,0.508
2015-06-22 01:41:00,1700E-3,5C000000,-0724,0825,12216,028.7,045.5,0.471,725.8,01.19,0.508
2015-06-22 01:42:00,1475E-3,5C000000,-0724,0825,12208,028.7,045.5,0.471,725.8,01.19,0.508
2015-06-22 01:43:00,1629E-3,5C000000,-0724,0825,12381,028.9,045.5,0.472,725.8,01.19,0.508
2015-06-22 01:44:00,1768E-3,5C000000,-0724,0824,12348,029.0,045.5,0.471,725.6,01.19,0.508
2015-06-22 01:45:00,1674E-3,5C000000,-0724,0825,12300,029.0,045.5,0.471,725.7,01.19,0.508
2015-06-22 01:46:00,1683E-3,5C000000,-0724,0825,12257,029.1,045.5,0.471,725.5,01.19,0.508
2015-06-22 01:47:00,1719E-3,5C000000,-0724,0825,12298,029.2,045.5,0.471,725.8,01.19,0.508
2015-06-22 01:48:00,1805E-3,5C000000,-0724,0824,12038,029.2,045.5,0.471,725.7,01.19,0.508
2015-06-22 01:49:00,1687E-3,5C000000,-0724,0825,12217,029.3,045.5,0.471,725.6,01.19,0.508
2015-06-22 01:50:00,1564E-3,5C000000,-0724,0825,12041,029.4,045.5,0.471,725.5,01.19,0.508
2015-06-22 01:51:00,1635E-3,5C000000,-0723,0825,12228,029.4,045.5,0.470,725.7,01.19,0.508
2015-06-22 01:52:00,1687E-3,5C000000,-0724,0825,12253,029.5,045.5,0.470,725.7,01.19,0.508
2015-06-22 01:53:00,1783E-3,5C000000,-0723,0825,12221,029.6,045.5,0.471,725.7,01.19,0.508
2015-06-22 01:54:00,1696E-3,5C000000,-0723,0825,12176,029.7,045.5,0.471,725.8,01.19,0.508
2015-06-22 01:55:00,1651E-3,5C000000,-0723,0824,12223,029.7,045.5,0.470,725.9,01.19,0.508
2015-06-22 01:56:00,1690E-3,5C000000,-0723,0825,12138,029.8,045.5,0.470,725.8,01.19,0.508
2015-06-22 01:57:00,1617E-3,5C000000,-0723,0824,12233,029.8,045.5,0.470,725.9,01.19,0.508
2015-06-22 01:58:00,1762E-3,5C000000,-0723,0824,12239,029.9,045.5,0.470,725.7,01.19,0.508
2015-06-22 01:59:00,1786E-3,5C000000,-0723,0824,12303,029.9,045.5,0.470,725.7,01.19,0.508
2015-06-22 02:00:00,1525E-3,5C000000,-0723,0824,12229,030.0,045.5,0.469,725.7,01.19,0.508
2015-06-22 02:01:00,1780E-3,5C000000,-0723,0824,12379,030.0,045.5,0.470,726.0,01.19,0.508
2015-06-22 02:02:00,1592E-3,5C000000,-0723,0824,12310,030.1,045.5,0.470,725.9,01.19,0.508
2015-06-22 02:03:00,1719E-3,5C000000,-0723,0825,12191,030.2,045.5,0.469,726.0,01.19,0.508
2015-06-22 02:04:00,1660E-3,5C000000,-0723,0824,12300,030.2,045.5,0.469,725.8,01.19,0.508
2015-06-22 02:05:00,1730E-3,5C000000,-0723,0825,12332,030.3,045.5,0.470,726.0,01.19,0.508
2015-06-22 02:06:00,1814E-3,5C000000,-0723,0825,12240,030.3,045.5,0.469,725.9,01.19,0.508
2015-06-22 02:07:00,1628E-3,5C000000,-0723,0824,12279,030.4,045.5,0.469,725.8,01.19,0.508
2015-06-22 02:08:00,1559E-3,5C000000,-0723,0824,12347,030.4,045.5,0.469,725.9,01.19,0.508
2015-06-22 02:09:00,1625E-3,5C000000,-0723,0825,12303,030.5,045.5,0.469,725.9,01.19,0.508
2015-06-22 02:10:00,1572E-3,5C000000,-0723,0825,12400,030.5,045.5,0.469,725.9,01.19,0.508
2015-06-22 02:11:00,1716E-3,5C000000,-0723,0824,12254,030.6,045.5,0.469,725.9,01.19,0.508
2015-06-22 02:12:00,1803E-3,5C000000,-0723,0824,12012,030.6,045.5,0.469,725.9,01.19,0.508
2015-06-22 02:13:00,1745E-3,5C000000,-0723,0824,12295,030.6,045.5,0.469,725.9,01.19,0.508
2015-06-22 02:14:00,1466E-3,5C000000,-0723,0824,12291,030.7,045.5,0.469,725.9,01.19,0.508
2015-06-22 02:15:00,1652E-3,5C000000,-0723,0824,12232,030.7,045.5,0.469,725.7,01.19,0.508
2015-06-22 02:16:00,1711E-3,5C000000,-0723,0825,12192,030.7,045.5,0.469,725.9,01.19,0.508
2015-06-22 02:17:00,1606E-3,5C000000,-0723,0825,12353,030.8,045.5,0.468,726.1,01.19,0.508
2015-06-22 02:18:00,1739E-3,5C000000,-0723,0824,12187,030.8,045.6,0.469,725.9,01.19,0.508
2015-06-22 02:19:00,1681E-3,5C000000,-0723,0824,12164,030.9,045.5,0.468,725.9,01.19,0.508
2015-06-22 02:20:00,1613E-3,5C000000,-0723,0824,12216,030.9,045.5,0.468,725.9,01.19,0.508
2015-06-22 02:21:00,1687E-3,5C000000,-0723,0824,12253,030.9,045.5,0.469,726.0,01.19,0.508
2015-06-22 02:22:00,1723E-3,5C000000,-0723,0825,12285,030.9,045.5,0.468,726.0,01.19,0.508
2015-06-22 02:23:00,1652E-3,5C000000,-0723,0825,12270,030.8,045.5,0.468,725.8,01.19,0.508
2015-06-22 02:24:00,1661E-3,5C000000,-0723,0824,12250,030.7,045.5,0.469,726.1,01.19,0.508
2015-06-22 02:25:00,1681E-3,5C000000,-0723,0825,12243,030.6,045.5,0.469,725.9,01.19,0.508
2015-06-22 02:26:00,1665E-3,5C000000,-0723,0824,12276,030.4,045.5,0.468,726.0,01.19,0.508
2015-06-22 02:27:00,1665E-3,5C000000,-0723,0824,12268,030.3,045.5,0.469,726.1,01.19,0.508
2015-06-22 02:28:00,1692E-3,5C000000,-0723,0823,12233,030.2,045.5,0.469,726.2,01.19,0.508
2015-06-22 02:29:00,1735E-3,5C000000,-0723,0823,12263,030.1,045.5,0.469,726.2,01.19,0.508
2015-06-22 02:30:00,1698E-3,5C000000,-0723,0824,12241,029.9,045.5,0.470,726.2,01.19,0.508
2015-06-22 02:31:00,1714E-3,5C000000,-0723,0824,12176,029.7,045.5,0.470,726.1,01.19,0.508
2015-06-22 02:32:00,1589E-3,5C000000,-0723,0824,12161,029.6,045.5,0.470,726.3,01.19,0.508
2015-06-22 02:33:00,1621E-3,5C000000,-0723,0823,12126,029.4,045.5,0.470,726.3,01.19,0.508
2015-06-22 02:34:00,1677E-3,5C000000,-0723,0824,12153,029.2,045.5,0.470,726.3,01.19,0.508
2015-06-22 02:35:00,1516E-3,5C000000,-0723,0823,12221,029.0,045.5,0.470,726.3,01.19,0.508
2015-06-22 02:36:00,1546E-3,5C000000,-0723,0823,12373,028.7,045.5,0.471,726.4,01.19,0.508
2015-06-22 02:37:00,1637E-3,5C000000,-0723,0823,12327,028.5,045.5,0.471,726.3,01.19,0.508
2015-06-22 02:38:00,1754E-3,5C000000,-0723,0823,12161,028.4,045.4,0.472,726.3,01.19,0.508
2015-06-22 02:39:00,1539E-3,5C000000,-0723,0823,12200,028.2,045.5,0.472,726.2,01.19,0.508
2015-06-22 02:40:00,1690E-3,5C000000,-0723,0823,12186,028.0,045.5,0.472,725.9,01.19,0.508
2015-06-22 02:41:00,1712E-3,5C000000,-0723,0823,12312,027.9,045.5,0.472,726.1,01.19,0.508
2015-06-22 02:42:00,1775E-3,5C000000,-0724,0823,12339,027.7,045.5,0.472,726.2,01.19,0.508
2015-06-22 02:43:00,1770E-3,5C000000,-0724,0822,12262,027.6,045.5,0.472,726.1,01.19,0.508
2015-06-22 02:44:00,1731E-3,5C000000,-0724,0823,12213,027.5,045.4,0.473,726.1,01.19,0.508
2015-06-22 02:45:00,1477E-3,5C000000,-0724,0823,12128,027.4,045.5,0.473,726.2,01.19,0.508
2015-06-22 02:46:00,1706E-3,5C000000,-0724,0822,12102,027.2,045.4,0.473,726.2,01.19,0.508
2015-06-22 02:47:00,1693E-3,5C000000,-0724,0822,12177,027.1,045.4,0.473,725.9,01.19,0.508
2015-06-22 02:48:00,1513E-3,5C000000,-0724,0822,12329,027.0,045.5,0.474,726.2,01.19,0.508
2015-06-22 02:49:00,1686E-3,5C000000,-0724,0823,12159,027.0,045.5,0.474,726.1,01.19,0.508
2015-06-22 02:50:00,1763E-3,5C000000,-0724,0823,12245,026.9,045.4,0.474,726.0,01.19,0.508
2015-06-22 02:51:00,1733E-3,5C000000,-0724,0822,12320,026.9,045.4,0.474,726.0,01.19,0.508
2015-06-22 02:52:00,1741E-3,5C000000,-0724,0822,12381,026.9,045.5,0.474,726.1,01.19,0.508
2015-06-22 02:53:00,1709E-3,5C000000,-0724,0823,12220,026.9,045.4,0.475,726.2,01.19,0.508
2015-06-22 02:54:00,1697E-3,5C000000,-0724,0823,12123,026.8,045.4,0.474,726.2,01.19,0.508
2015-06-22 02:55:00,1571E-3,5C000000,-0724,0822,12184,026.8,045.4,0.475,726.2,01.19,0.508
2015-06-22 02:56:00,1699E-3,5C000000,-0724,0822,12188,026.9,045.4,0.474,726.1,01.19,0.508
2015-06-22 02:57:00,1585E-3,5C000000,-0724,0822,12357,026.9,045.4,0.474,726.3,01.19,0.508
2015-06-22 02:58:00,1777E-3,5C000000,-0724,0822,12231,027.0,045.4,0.474,726.2,01.19,0.508
2015-06-22 02:59:00,1645E-3,5C000000,-0724,0823,12083,027.1,045.5,0.474,726.4,01.19,0.508
2015-06-22 03:00:00,1437E-3,5C000000,-0724,0823,12290,027.3,045.5,0.474,726.2,01.19,0.508
2015-06-22 03:01:00,1663E-3,5C000000,-0724,0823,12348,027.4,045.5,0.474,726.4,01.19,0.508
2015-06-22 03:02:00,1680E-3,5C000000,-0724,0822,12305,027.5,045.5,0.474,726.2,01.19,0.508
2015-06-22 03:03:00,1651E-3,5C000000,-0724,0823,12251,027.7,045.4,0.473,726.3,01.19,0.508
2015-06-22 03:04:00,1638E-3,5C000000,-0724,0822,12265,027.8,045.5,0.474,726.4,01.19,0.508
2015-06-22 03:05:00,1758E-3,5C000000,-0724,0823,12233,028.0,045.4,0.474,726.4,01.19,0.508
2015-06-22 03:06:00,1659E-3,5C000000,-0724,0823,12252,028.1,045.4,0.473,726.4,01.19,0.508
2015-06-22 03:07:00,1736E-3,5C000000,-0724,0823,12282,028.2,045.5,0.473,726.4,01.19,0.508
2015-06-22 03:08:00,1772E-3,5C000000,-0724,0823,12272,028.3,045.5,0.473,726.4,01.19,0.508
2015-06-22 03:09:00,1798E-3,5C000000,-0724,0823,12209,028.4,045.5,0.473,726.2,01.19,0.508
2015-06-22 03:10:00,1635E-3,5C000000,-0724,0822,12242,028.4,045.4,0.473,726.4,01.19,0.508
2015-06-22 03:11:00,1807E-3,5C000000,-0724,0823,12217,028.3,045.4,0.473,726.4,01.19,0.508
2015-06-22 03:12:00,1523E-3,5C000000,-0724,0822,12339,028.3,045.5,0.472,726.3,01.19,0.508
2015-06-22 03:13:00,1840E-3,5C000000,-0724,0823,12264,028.3,045.5,0.472,726.2,01.19,0.508
2015-06-22 03:14:00,1582E-3,5C000000,-0724,0823,12312,028.2,045.5,0.473,726.5,01.19,0.508
2015-06-22 03:15:00,1520E-3,5C000000,-0724,0822,12221,028.2,045.5,0.473,726.3,01.19,0.508
2015-06-22 03:16:00,1654E-3,5C000000,-0724,0823,12288,028.1,045.4,0.472,726.4,01.19,0.508
2015-06-22 03:17:00,1754E-3,5C000000,-0724,0822,12322,028.0,045.5,0.473,726.5,01.19,0.508
2015-06-22 03:18:00,1652E-3,5C000000,-0724,0822,12303,027.9,045.5,0.472,726.5,01.19,0.508
2015-06-22 03:19:00,1571E-3,5C000000,-0724,0822,12229,027.8,045.5,0.473,726.6,01.19,0.508
2015-06-22 03:20:00,1718E-3,5C000000,-0724,0822,12247,027.7,045.5,0.473,726.5,01.19,0.508
2015-06-22 03:21:00,1697E-3,5C000000,-0724,0822,12159,027.6,045.4,0.473,726.4,01.19,0.508
2015-06-22 03:22:00,1483E-3,5C000000,-0724,0822,12436,027.4,045.4,0.473,726.4,01.19,0.508
2015-06-22 03:23:00,1619E-3,5C000000,-0724,0822,12192,027.3,045.4,0.473,726.5,01.19,0.508
2015-06-22 03:24:00,1640E-3,5C000000,-0724,0821,12223,027.2,045.4,0.474,726.4,01.19,0.508
2015-06-22 03:25:00,1594E-3,5C000000,-0724,0822,12243,027.0,045.4,0.474,726.4,01.19,0.508
2015-06-22 03:26:00,1736E-3,5C000000,-0724,0822,12085,026.9,045.4,0.474,726.5,01.19,0.508
2015-06-22 03:27:00,1744E-3,5C000000,-0724,0823,12257,026.9,045.4,0.474,726.5,01.19,0.508
2015-06-22 03:28:00,1637E-3,5C000000,-0724,0821,12314,026.8,045.4,0.474,726.6,01.19,0.508
2015-06-22 03:29:00,1653E-3,5C000000,-0724,0822,12369,026.7,045.4,0.474,726.6,01.19,0.508
2015-06-22 03:30:00,1728E-3,5C000000,-0724,0822,12266,026.6,045.4,0.474,726.7,01.19,0.508
2015-06-22 03:31:00,1704E-3,5C000000,-0724,0822,12218,026.5,045.4,0.475,726.6,01.19,0.508
2015-06-22 03:32:00,1568E-3,5C000000,-0724,0822,12285,026.5,045.4,0.474,726.6,01.19,0.508
2015-06-22 03:33:00,1758E-3,5C000000,-0724,0821,12359,026.4,045.4,0.475,726.5,01.19,0.508
2015-06-22 03:34:00,1637E-3,5C000000,-0724,0822,12311,026.4,045.4,0.475,726.7,01.19,0.508
2015-06-22 03:35:00,1718E-3,5C000000,-0724,0821,12270,026.3,045.4,0.475,726.6,01.19,0.508
2015-06-22 03:36:00,1602E-3,5C000000,-0724,0822,12252,026.2,045.4,0.475,726.8,01.19,0.508
2015-06-22 03:37:00,1572E-3,5C000000,-0724,0821,12353,026.2,045.4,0.475,726.8,01.19,0.508
2015-06-22 03:38:00,1643E-3,5C000000,-0724,0821,12249,026.2,045.4,0.475,726.6,01.19,0.508
2015-06-22 03:39:00,1591E-3,5C000000,-0724,0821,12258,026.2,045.4,0.475,726.5,01.19,0.508
2015-06-22 03:40:00,1673E-3,5C000000,-0724,0821,12160,026.1,045.4,0.476,726.7,01.19,0.508
2015-06-22 03:41:00,1629E-3,5C000000,-0724,0821,12312,026.1,045.4,0.475,726.7,01.19,0.508
2015-06-22 03:42:00,1704E-3,5C000000,-0724,0822,12207,026.1,045.4,0.476,726.8,01.19,0.508
2015-06-22 03:43:00,1720E-3,5C000000,-0724,0821,12351,026.2,045.4,0.475,726.7,01.19,0.508
2015-06-22 03:44:00,1568E-3,5C000000,-0724,0822,12189,026.2,045.4,0.476,726.8,01.19,0.508
2015-06-22 03:45:00,1733E-3,5C000000,-0724,0822,12261,026.2,045.4,0.475,726.8,01.19,0.508
2015-06-22 03:46:00,1703E-3,5C000000,-0724,0822,12349,026.3,045.4,0.475,726.8,01.19,0.508
2015-06-22 03:47:00,1569E-3,5C000000,-0724,0821,12253,026.4,045.4,0.476,726.9,01.19,0.508
2015-06-22 03:48:00,1666E-3,5C000000,-0724,0822,12202,026.5,045.4,0.475,726.9,01.19,0.508
2015-06-22 03:49:00,1662E-3,5C000000,-0724,0821,12173,026.6,045.4,0.475,726.8,01.19,0.508
2015-06-22 03:50:00,1718E-3,5C000000,-0724,0821,12276,026.8,045.4,0.475,726.7,01.19,0.508
2015-06-22 03:51:00,1613E-3,5C000000,-0724,0822,12313,027.0,045.4,0.475,726.8,01.19,0.508
2015-06-22 03:52:00,1573E-3,5C000000,-0724,0822,12303,027.2,045.4,0.475,726.9,01.19,0.508
2015-06-22 03:53:00,1769E-3,5C000000,-0724,0822,12268,027.3,045.4,0.474,726.8,01.19,0.508
2015-06-22 03:54:00,1658E-3,5C000000,-0724,0821,12218,027.5,045.4,0.474,726.8,01.19,0.508
2015-06-22 03:55:00,1632E-3,5C000000,-0724,0821,12197,027.6,045.4,0.474,726.8,01.19,0.508
2015-06-22 03:56:00,1739E-3,5C000000,-0724,0822,12231,027.8,045.4,0.474,726.8,01.19,0.508
2015-06-22 03:57:00,1659E-3,5C000000,-0724,0822,12335,027.9,045.4,0.473,726.7,01.19,0.508
2015-06-22 03:58:00,1526E-3,5C000000,-0724,0822,12225,028.1,045.4,0.473,726.7,01.19,0.508
2015-06-22 03:59:00,1681E-3,5C000000,-0724,0822,12315,028.2,045.5,0.473,726.8,01.19,0.508
2015-06-22 04:00:00,1615E-3,5C000000,-0724,0823,12370,028.3,045.5,0.473,726.8,01.19,0.508
2015-06-22 04:01:00,1696E-3,5C000000,-0724,0823,12239,028.3,045.5,0.473,726.8,01.19,0.508
2015-06-22 04:02:00,1648E-3,5C000000,-0724,0822,12297,028.3,045.5,0.473,726.9,01.19,0.508
2015-06-22 04:03:00,1553E-3,5C000000,-0724,0822,12185,028.3,045.5,0.473,726.9,01.19,0.508
2015-06-22 04:04:00,1666E-3,5C000000,-0724,0821,12355,028.3,045.5,0.473,727.0,01.19,0.508
2015-06-22 04:05:00,1796E-3,5C000000,-0724,0822,12076,028.2,045.4,0.473,726.9,01.19,0.508
2015-06-22 04:06:00,1671E-3,5C000000,-0724,0822,12234,028.2,045.4,0.472,727.0,01.19,0.508
2015-06-22 04:07:00,1669E-3,5C000000,-0724,0821,12208,028.1,045.4,0.472,727.0,01.19,0.508
2015-06-22 04:08:00,1726E-3,5C000000,-0724,0821,12304,028.0,045.5,0.473,727.1,01.19,0.508
2015-06-22 04:09:00,1686E-3,5C000000,-0724,0822,12190,027.9,045.4,0.473,727.0,01.19,0.508
2015-06-22 04:10:00,1653E-3,5C000000,-0724,0822,12172,027.8,045.4,0.472,727.0,01.19,0.508
2015-06-22 04:11:00,1718E-3,5C000000,-0724,0821,12361,027.8,045.5,0.473,726.8,01.19,0.508
2015-06-22 04:12:00,1570E-3,5C000000,-0724,0821,12307,027.7,045.5,0.473,727.0,01.19,0.508
2015-06-22 04:13:00,1696E-3,5C000000,-0724,0822,12391,027.5,045.4,0.473,727.0,01.19,0.508
2015-06-22 04:14:00,1773E-3,5C000000,-0724,0821,12245,027.4,045.4,0.473,727.1,01.19,0.508
2015-06-22 04:15:00,1641E-3,5C000000,-0724,0821,12250,027.2,045.4,0.474,727.1,01.19,0.508
2015-06-22 04:16:00,1729E-3,5C000000,-0724,0821,12296,027.0,045.4,0.474,727.1,01.19,0.508
2015-06-22 04:17:00,1648E-3,5C000000,-0724,0821,12175,026.9,045.4,0.474,727.1,01.19,0.508
2015-06-22 04:18:00,1673E-3,5C000000,-0724,0821,12324,026.8,045.4,0.474,727.1,01.19,0.508
2015-06-22 04:19:00,1619E-3,5C000000,-0724,0822,12293,026.7,045.4,0.474,727.1,01.19,0.508
2015-06-22 04:20:00,1578E-3,5C000000,-0724,0821,12189,026.6,045.4,0.475,727.0,01.19,0.508
2015-06-22 04:21:00,1582E-3,5C000000,-0724,0821,12302,026.6,045.4,0.475,727.1,01.19,0.508
2015-06-22 04:22:00,1605E-3,5C000000,-0724,0821,12235,026.5,045.4,0.475,727.1,01.19,0.508
2015-06-22 04:23:00,1637E-3,5C000000,-0724,0822,12394,026.4,045.4,0.475,727.0,01.19,0.508
2015-06-22 04:24:00,1557E-3,5C000000,-0724,0822,12384,026.3,045.4,0.475,727.0,01.19,0.508
2015-06-22 04:25:00,1457E-3,5C000000,-0724,0822,12282,026.3,045.4,0.475,727.2,01.19,0.508
2015-06-22 04:26:00,1694E-3,5C000000,-0724,0821,12257,026.2,045.4,0.475,726.9,01.19,0.508
2015-06-22 04:27:00,1666E-3,5C000000,-0724,0821,12183,026.2,045.4,0.476,727.0,01.19,0.508
2015-06-22 04:28:00,1657E-3,5C000000,-0724,0822,12270,026.1,045.4,0.475,727.1,01.19,0.508
2015-06-22 04:29:00,1764E-3,5C000000,-0724,0821,12247,026.0,045.4,0.476,727.1,01.19,0.508
2015-06-22 04:30:00,1611E-3,5C000000,-0724,0821,12309,026.0,045.4,0.475,727.1,01.19,0.508
2015-06-22 04:31:00,1660E-3,5C000000,-0724,0820,12169,026.0,045.4,0.476,727.1,01.19,0.508
2015-06-22 04:32:00,1713E-3,5C000000,-0724,0821,12090,026.0,045.4,0.476,727.1,01.19,0.508
2015-06-22 04:33:00,1761E-3,5C000000,-0724,0820,12143,026.0,045.4,0.475,727.1,01.19,0.508
2015-06-22 04:34:00,1691E-3,5C000000,-0724,0820,12309,026.1,045.4,0.476,727.0,01.19,0.508
2015-06-22 04:35:00,1728E-3,5C000000,-0724,0820,12182,026.2,045.4,0.476,727.1,01.19,0.508
2015-06-22 04:36:00,1670E-3,5C000000,-0724,0821,12213,026.3,045.4,0.475,727.1,01.19,0.508
2015-06-22 04:37:00,1660E-3,5C000000,-0724,0822,12403,026.5,045.4,0.476,727.1,01.19,0.508
2015-06-22 04:38:00,1657E-3,5C000000,-0724,0820,12364,026.6,045.4,0.476,727.1,01.19,0.508
2015-06-22 04:39:00,1649E-3,5C000000,-0724,0821,12330,026.8,045.4,0.475,727.1,01.19,0.508
2015-06-22 04:40:00,1706E-3,5C000000,-0724,0822,12169,027.0,045.4,0.475,727.1,01.19,0.508
2015-06-22 04:41:00,1687E-3,5C000000,-0724,0822,12288,027.1,045.4,0.475,727.1,01.19,0.508
2015-06-22 04:42:00,1777E-3,5C000000,-0724,0821,12166,027.3,045.5,0.474,727.1,01.19,0.508
2015-06-22 04:43:00,1707E-3,5C000000,-0724,0822,12263,027.4,045.5,0.474,727.1,01.19,0.508
2015-06-22 04:44:00,1699E-3,5C000000,-0724,0821,12111,027.5,045.4,0.474,727.1,01.19,0.508